Location: Unspecified
(22.6800°N, 112.2000°E)
Time: 23:45:24
(UTC+08:00)

Courier 1B Rocket - Pass Details

Date: 01 August 2021
Orbit: 920 x 1202 km, 28.3° (Epoch: 17 September)

Event Time Altitude Azimuth Distance (km) Brightness Sun altitude
Exits shadow 04:06:38 29° 299° (WNW) 1,665 6.0 -24.7°
Maximum altitude 04:09:41 51° 359° (N) 1,159 5.5 -24.1°
Drops below altitude 10° 04:15:45 10° 75° (ENE) 2,609 8.2 -22.9°
Sets 04:18:25 0° 80° (E) 3,546 9.1 -22.4°
